Wind_Speed
21 22 21 21 21 21 23 21 13 10 10 18 20 22 24 27 26 28 22 20 17 16 12 6 5 9 10 11 11 13 12 12 8 44 53 53 52 53
18 19 20 22 24 23 23 23 22 18 11 17 20 20 19 19 18 20 24 21 17 16 14 14 10 15 19 13 10 15 14 13 16 7 45 53 53 56
21 23 25 24 25 26 25 25 24 21 13 20 22 23 22 22 24 22 22 22 19 16 16 19 22 23 19 14 12 13 13 12 11 14 10 40 56 54
22 22 24 25 25 25 25 25 26 26 20 12 11 15 16 15 17 22 24 25 26 27 24 22 21 23 21 16 16 16 16 14 11 11 15 22 19 59
19 19 19 17 19 19 18 19 20 22 22 18 13 13 18 19 20 20 20 23 29 30 32 30 27 27 26 26 21 19 18 17 14 12 13 18 21 27
15 18 21 23 25 27 27 27 27 25 22 20 19 17 18 21 22 23 23 24 25 28 30 29 28 30 30 26 23 17 17 15 14 15 17 15 16 19
26 29 30 29 26 26 26 26 26 25 24 23 24 23 22 19 21 25 26 26 28 28 28 29 28 26 24 20 20 19 19 19 18 16 19 19 19 18
28 27 28 26 27 26 26 27 27 27 25 21 20 17 18 18 22 24 24 20 10 23 23 24 19 19 18 19 22 20 17 16 15 17 17 19 23 24
26 25 25 23 24 27 28 27 28 28 30 28 24 23 22 20 20 18 21 20 19 17 15 15 21 20 20 14 15 15 15 17 18 18 20 21 23 27
26 25 26 28 26 25 26 26 27 26 26 28 26 29 29 28 26 25 26 26 28 27 23 16 24 28 24 23 17 17 19 19 19 18 20 20 22 25
27 25 24 26 28 27 29 28 27 28 26 27 29 29 28 28 26 24 22 19 11 18 23 22 22 25 29 31 32 23 22 20 17 14 15 17 19 22
21 23 25 26 27 27 28 27 26 26 24 25 26 28 29 31 30 32 25 19 16 5 19 16 20 18 6 21 25 22 12 8 10 14 17 18 17 20
23 25 24 24 25 27 26 27 27 29 23 22 23 22 24 26 28 28 31 29 17 18 19 19 15 20 20 15 13 16 11 8 10 15 18 19 16 13
26 23 24 24 23 23 22 21 21 21 25 21 20 20 22 22 24 26 28 29 30 27 21 23 20 23 18 9 9 16 12 16 15 17 19 18 17 15
19 16 19 19 19 18 16 17 17 16 15 16 18 20 22 24 22 23 25 25 27 26 28 30 30 26 27 19 9 15 19 11 16 11 12 15 16 16
15 15 19 18 16 16 18 16 15 14 15 18 18 22 20 19 20 23 20 24 20 17 23 27 31 33 24 27 23 20 21 9 7 9 9 10 10 12
12 14 18 21 19 19 21 21 20 19 17 17 15 12 14 15 17 18 19 17 15 14 18 22 26 30 29 23 18 25 22 17 13 9 3 4 6 8
12 13 16 17 16 17 18 20 20 21 21 18 13 8 8 10 13 14 15 14 13 15 16 16 14 10 6 6 13 13 13 11 9 6 3 4 2 4
14 15 14 17 17 17 19 19 18 22 21 18 15 13 12 10 11 13 13 12 9 9 9 10 10 4 3 3 1 3 6 8 12 9 5 4 4 1
16 14 15 17 18 18 20 20 23 23 23 22 19 17 15 11 8 4 3 2 4 2 3 3 3 3 1 2 2 4 4 8 12 11 11 11 11 6
17 16 17 18 19 20 20 22 23 23 23 23 22 19 16 13 14 11 8 7 5 4 5 5 4 1 4 7 4 6 14 3 3 8 15 12 5 4
18 17 18 19 20 20 21 21 22 25 25 24 22 20 17 14 11 9 8 8 7 6 9 10 8 5 6 3 3 6 14 18 15 14 12 4 4 3
17 17 18 20 21 21 21 22 22 22 23 21 19 18 16 15 12 11 10 9 10 10 11 11 9 10 6 8 9 8 12 12 12 14 12 10 6 4
Wind_Direction
292 297 297 298 297 296 290 280 260 288 284 288 284 288 289 295 298 303 318 321 319 324 285 300 319 319 312 331 342 304 279 300 316 224 222 216 214 215
300 303 302 302 303 298 293 287 272 263 280 278 281 287 292 296 303 304 309 312 316 309 300 304 305 316 308 311 321 320 317 319 293 307 219 220 219 218
305 302 301 303 297 294 290 286 276 270 270 281 276 281 282 287 294 297 298 300 302 309 309 306 305 310 301 298 314 308 309 321 314 272 267 222 213 214
303 301 299 298 291 289 284 279 277 276 270 280 281 276 282 278 278 283 286 290 296 299 303 304 307 305 296 287 298 298 288 279 287 281 279 241 242 224
295 292 291 292 291 292 287 281 275 277 279 282 278 269 277 283 284 286 284 286 287 288 291 296 297 298 297 282 280 280 280 274 269 271 279 266 246 248
295 294 293 292 290 288 286 280 280 275 271 269 272 270 264 271 274 277 280 280 286 290 289 290 292 288 288 280 271 276 278 279 279 270 263 268 262 257
302 300 298 295 286 280 276 273 270 266 266 268 268 269 262 254 246 261 263 270 272 270 274 277 279 277 278 270 265 269 274 277 282 279 260 254 249 246
304 300 297 292 288 284 279 274 270 269 265 262 263 259 263 258 257 254 257 254 260 259 257 259 263 281 275 269 264 265 268 276 283 285 283 272 256 244
299 296 294 289 286 283 281 277 272 268 262 258 256 255 257 255 254 250 244 250 254 247 240 261 272 280 288 290 275 270 269 273 280 283 279 270 268 254
302 298 291 290 289 286 284 278 274 269 266 259 255 253 254 257 249 247 247 249 257 258 255 260 261 266 271 270 286 276 270 273 276 284 292 275 262 254
307 300 294 291 291 289 286 281 276 272 269 260 261 258 257 253 253 250 241 236 244 246 245 239 252 259 265 269 266 283 264 267 276 297 313 295 273 259
303 301 297 292 293 293 287 280 275 271 268 265 255 251 254 255 253 247 246 228 232 224 239 225 237 237 259 250 252 259 250 253 287 307 312 305 284 266
301 300 301 303 299 294 293 291 278 271 269 265 263 256 253 250 254 248 244 243 233 231 233 233 230 225 231 267 269 227 232 266 306 325 319 312 288 270
299 302 317 315 313 309 301 298 297 288 264 257 254 251 242 240 241 242 244 246 245 243 243 238 237 235 224 217 229 238 269 293 298 317 320 316 318 299
313 329 330 325 326 324 322 315 307 294 275 265 257 251 248 248 242 239 242 246 248 250 249 247 241 243 242 244 246 254 274 275 299 299 327 323 322 309
320 325 354 348 347 347 352 352 346 329 299 267 266 261 249 238 237 237 226 232 229 232 246 252 250 244 238 242 244 255 260 238 263 289 318 310 308 298
352 354 346 352 350 352 350 355 0 353 346 334 315 302 247 234 232 238 241 236 225 240 250 246 250 247 239 240 239 246 250 249 257 255 274 290 329 324
11 2 356 344 348 353 351 345 357 358 354 351 349 315 268 247 247 251 243 226 231 240 239 235 221 185 190 190 233 242 233 226 231 223 186 137 55 336
14 5 351 352 353 357 357 354 347 360 11 11 14 2 341 294 259 242 229 231 233 224 212 207 191 184 176 188 143 145 188 185 177 160 147 148 131 99
10 359 353 356 359 2 1 1 9 15 18 21 22 22 25 24 24 31 191 188 167 121 119 135 119 53 20 199 132 52 108 179 176 139 119 119 115 111
3 358 5 8 8 12 14 16 18 22 24 26 26 27 29 39 40 47 65 74 97 65 75 63 23 85 124 121 102 63 69 95 178 149 147 130 106 99
11 8 13 16 17 16 17 20 20 22 25 28 28 28 30 43 51 46 52 69 78 109 110 103 103 88 65 85 97 98 86 90 104 102 106 111 162 152
14 13 15 19 19 18 18 19 21 23 24 25 27 31 35 44 53 62 71 87 98 109 119 108 83 68 71 111 119 98 101 95 85 90 94 96 81 94
Height
769 769 769 769 768 767 766 766 765 761 758 758 759 760 759 756 753 750 750 750 749 747 747 744 743 744 748 741 741 741 740 740 739 739 745 752 760 769
765 764 763 762 761 761 760 760 759 757 751 754 753 754 754 752 750 748 746 747 746 745 744 744 744 742 746 741 739 741 740 737 735 736 735 742 749 757
760 759 756 756 755 754 754 753 752 752 747 746 747 747 747 747 746 744 743 742 742 741 740 740 740 739 739 736 734 737 737 734 734 734 736 733 738 747
754 753 751 751 749 748 747 746 745 745 743 740 740 740 740 741 740 739 739 738 737 736 735 734 733 733 732 731 731 735 736 736 734 733 730 732 733 736
749 748 746 745 744 743 742 740 739 738 738 736 735 735 735 735 734 733 732 731 731 731 730 729 728 727 727 729 729 730 731 729 727 725 725 725 729 729
745 744 743 741 739 737 736 734 732 731 730 729 728 728 729 729 728 727 725 726 724 724 723 723 723 722 721 721 722 723 723 722 721 721 721 723 723 723
740 738 735 734 732 730 728 725 724 722 722 722 720 720 720 721 721 721 719 718 716 717 715 715 715 714 715 714 715 716 715 716 715 714 715 715 716 719
732 729 727 725 722 720 718 717 717 715 714 714 713 712 713 714 714 713 712 712 709 710 709 707 708 706 707 707 708 707 708 709 709 709 709 710 711 711
726 722 719 717 715 712 709 708 707 706 706 706 705 705 705 706 707 706 706 705 703 704 704 702 702 701 703 702 703 702 703 703 704 704 704 705 705 704
720 717 713 709 707 705 702 699 698 697 696 695 695 695 695 696 697 698 698 698 697 698 701 698 699 697 698 699 699 698 697 697 699 699 699 698 698 700
714 710 707 703 700 698 694 691 688 686 686 686 686 686 686 687 689 690 690 691 689 690 692 693 693 693 694 692 693 693 693 693 693 692 691 690 690 691
709 704 700 697 693 690 687 683 679 676 677 676 676 676 677 678 680 681 682 681 683 683 684 687 688 690 688 682 685 687 687 687 688 687 685 684 683 683
703 698 694 690 687 683 679 675 670 668 668 669 669 668 668 669 670 671 672 674 674 674 678 679 680 682 682 681 680 681 682 682 681 680 678 677 676 677
698 693 690 686 681 676 672 668 665 661 660 660 660 659 659 659 660 661 663 665 666 668 671 672 673 674 675 677 678 676 676 676 674 672 670 670 668 668
695 692 687 682 676 671 667 663 659 656 655 654 652 650 650 650 652 654 655 657 659 661 663 664 666 667 668 667 669 670 671 670 669 667 665 666 664 664
692 689 685 680 675 670 665 660 656 653 650 647 645 642 643 644 646 647 649 651 653 654 655 657 658 660 659 661 663 663 664 667 663 662 659 661 661 659
690 688 684 680 674 669 665 660 655 651 647 644 640 638 638 639 641 643 644 646 647 647 649 649 649 650 652 654 654 655 657 658 658 659 656 657 657 658
691 688 685 682 677 672 667 661 656 651 647 643 639 638 638 638 639 640 641 642 643 643 643 643 643 645 647 648 650 650 652 653 655 655 653 655 657 658
692 690 687 683 679 675 670 665 660 655 650 645 641 639 637 635 636 636 637 638 638 638 639 640 642 644 645 646 648 648 650 652 655 654 652 654 656 658
695 693 690 686 682 677 673 669 663 657 652 648 645 642 639 637 636 636 636 637 637 639 640 641 643 645 646 646 648 651 649 651 653 651 652 655 658 660
697 695 692 688 684 680 676 671 667 662 658 653 649 646 643 641 640 639 639 639 640 641 643 644 645 646 647 648 650 652 651 653 653 650 653 654 660 661
700 697 694 690 686 683 679 675 670 665 661 657 654 651 648 645 644 644 643 643 643 644 645 646 647 647 647 649 651 653 654 653 653 653 655 659 660 662
703 700 697 693 689 686 682 678 674 670 666 663 660 657 654 651 649 647 647 646 647 648 648 648 649 649 650 651 653 655 657 657 657 658 659 661 661 660